When you browse on this site, cookies collect data to enhance your experience and personalize the content and advertising you see.
Visit our Privacy Policy to learn more. By continuing to use the site, you agree to this use of cookies and data.
  • In United Kingdom
  • List of Countries
  • For 7 days
  • Water Temperature
  • Satellite Maps
  • Weather Map
  • Weather Widgets
  • user-avatar
    Login

    Hourly Weather Shesto

    Today, 23 February, Saturday

    Time Temperature Precipitation Wind Pressure Humidity
    00:00 -9°C° 0 mm 3 mps 762 mmHg 81%
    01:00 -10°C° 0 mm 3 mps 762 mmHg 83%
    02:00 -10°C° 0 mm 2 mps 763 mmHg 88%
    03:00 -10°C° 0 mm 2 mps 762 mmHg 86%
    04:00 -10°C° 0 mm 2 mps 762 mmHg 85%
    05:00 -10°C° 0 mm 2 mps 762 mmHg 83%
    06:00 -10°C° 0 mm 2 mps 762 mmHg 79%
    07:00 -9°C° 0 mm 2 mps 762 mmHg 76%
    08:00 -8°C° 0 mm 2 mps 762 mmHg 72%
    09:00 -8°C° 0 mm 3 mps 762 mmHg 67%
    10:00 -7°C° 0 mm 3 mps 761 mmHg 62%
    11:00 -7°C° 0 mm 4 mps 761 mmHg 57%
    12:00 -7°C° 0.3 mm 4 mps 760 mmHg 66%
    13:00 -8°C° 0.3 mm 5 mps 760 mmHg 75%
    14:00 -8°C° 0.3 mm 5 mps 759 mmHg 85%
    15:00 -8°C° 0.5 mm 5 mps 758 mmHg 85%
    16:00 -8°C° 0.5 mm 5 mps 758 mmHg 85%
    17:00 -7°C° 0.5 mm 5 mps 757 mmHg 85%
    18:00 -7°C° 0.3 mm 5 mps 757 mmHg 85%
    19:00 -6°C° 0.3 mm 5 mps 756 mmHg 86%
    20:00 -6°C° 0.3 mm 5 mps 756 mmHg 86%
    21:00 -4°C° 0.1 mm 4 mps 756 mmHg 87%
    22:00 -3°C° 0.1 mm 4 mps 755 mmHg 89%
    23:00 -3°C° 0.1 mm 4 mps 755 mmHg 90%

    Tomorrow, 24 February, Sunday

    Time Temperature Precipitation Wind Pressure Humidity
    00:00 -2°C° 0 mm 4 mps 755 mmHg 91%
    01:00 -2°C° 0 mm 4 mps 755 mmHg 91%
    02:00 -2°C° 0 mm 4 mps 755 mmHg 92%
    03:00 -1°C° 0 mm 3 mps 755 mmHg 92%
    04:00 -1°C° 0 mm 3 mps 755 mmHg 93%
    05:00 -1°C° 0 mm 3 mps 754 mmHg 94%
    06:00 -1°C° 0 mm 3 mps 754 mmHg 94%
    07:00 -1°C° 0 mm 3 mps 754 mmHg 94%
    08:00 -1°C° 0 mm 3 mps 755 mmHg 94%
    09:00 0°C° 0 mm 3 mps 754 mmHg 94%
    10:00 0°C° 0 mm 3 mps 754 mmHg 93%
    11:00 0°C° 0 mm 3 mps 754 mmHg 93%
    12:00 +1°C° 0 mm 3 mps 754 mmHg 93%
    13:00 +1°C° 0 mm 3 mps 754 mmHg 93%
    14:00 +1°C° 0 mm 3 mps 754 mmHg 93%
    15:00 +1°C° 0 mm 3 mps 753 mmHg 94%
    16:00 +1°C° 0 mm 3 mps 753 mmHg 95%
    17:00 0°C° 0 mm 3 mps 753 mmHg 95%
    18:00 0°C° 0 mm 3 mps 752 mmHg 95%
    19:00 0°C° 0 mm 3 mps 752 mmHg 94%
    20:00 -1°C° 0 mm 4 mps 752 mmHg 94%
    21:00 -1°C° 0 mm 4 mps 751 mmHg 93%
    22:00 -1°C° 0 mm 4 mps 751 mmHg 93%
    23:00 0°C° 0 mm 3 mps 751 mmHg 93%

    Day after tomorrow, 25 February, Monday

    Time Temperature Precipitation Wind Pressure Humidity
    00:00 0°C° 0 mm 3 mps 750 mmHg 92%
    01:00 +1°C° 0 mm 3 mps 750 mmHg 92%
    02:00 +1°C° 0 mm 3 mps 750 mmHg 92%
    03:00 -1°C° 0 mm 4 mps 750 mmHg 91%
    04:00 -1°C° 0 mm 4 mps 750 mmHg 89%
    05:00 -1°C° 0 mm 4 mps 749 mmHg 87%
    06:00 -2°C° 0 mm 4 mps 749 mmHg 87%
    07:00 -2°C° 0 mm 5 mps 749 mmHg 87%
    08:00 -4°C° 0 mm 5 mps 749 mmHg 88%
    09:00 -2°C° 0 mm 5 mps 749 mmHg 85%
    10:00 -1°C° 0 mm 5 mps 748 mmHg 82%
    11:00 -1°C° 0 mm 6 mps 748 mmHg 79%
    12:00 0°C° 0.1 mm 5 mps 748 mmHg 79%
    13:00 0°C° 0.1 mm 5 mps 747 mmHg 79%
    14:00 0°C° 0.1 mm 5 mps 747 mmHg 79%
    15:00 0°C° 0 mm 5 mps 747 mmHg 80%
    16:00 0°C° 0 mm 5 mps 746 mmHg 81%
    17:00 0°C° 0 mm 5 mps 746 mmHg 81%
    18:00 0°C° 0 mm 5 mps 746 mmHg 82%
    19:00 0°C° 0 mm 5 mps 746 mmHg 82%
    20:00 0°C° 0 mm 5 mps 746 mmHg 83%
    21:00 -1°C° 0 mm 5 mps 746 mmHg 84%
    22:00 -1°C° 0 mm 4 mps 746 mmHg 85%
    23:00 -1°C° 0 mm 4 mps 746 mmHg 86%

    26 February, Tuesday

    Time Temperature Precipitation Wind Pressure Humidity
    00:00 -1°C° 0 mm 4 mps 746 mmHg 87%
    01:00 -2°C° 0 mm 4 mps 746 mmHg 88%
    02:00 -2°C° 0 mm 4 mps 745 mmHg 89%
    03:00 -2°C° 0 mm 4 mps 745 mmHg 89%
    04:00 -2°C° 0 mm 4 mps 744 mmHg 89%
    05:00 -2°C° 0 mm 4 mps 743 mmHg 90%
    06:00 -2°C° 0.2 mm 4 mps 743 mmHg 89%
    07:00 -2°C° 0.2 mm 4 mps 742 mmHg 87%
    08:00 -1°C° 0.2 mm 5 mps 741 mmHg 86%
    09:00 -1°C° 0.2 mm 5 mps 741 mmHg 85%
    10:00 0°C° 0.2 mm 5 mps 741 mmHg 84%
    11:00 0°C° 0.2 mm 5 mps 741 mmHg 83%
    12:00 0°C° 0.2 mm 5 mps 741 mmHg 84%
    13:00 0°C° 0.2 mm 5 mps 741 mmHg 85%
    14:00 +1°C° 0.2 mm 5 mps 741 mmHg 86%
    15:00 0°C° 0.1 mm 5 mps 742 mmHg 86%
    16:00 0°C° 0.1 mm 4 mps 742 mmHg 87%
    17:00 0°C° 0.1 mm 4 mps 743 mmHg 87%
    18:00 -1°C° 0 mm 4 mps 743 mmHg 87%
    19:00 -1°C° 0 mm 4 mps 744 mmHg 87%
    20:00 -2°C° 0 mm 4 mps 745 mmHg 87%
    21:00 -2°C° 0 mm 4 mps 745 mmHg 85%
    22:00 -2°C° 0 mm 4 mps 745 mmHg 84%
    23:00 -2°C° 0 mm 4 mps 746 mmHg 82%

    27 February, Wednesday

    Time Temperature Precipitation Wind Pressure Humidity
    00:00 -2°C° 0 mm 3 mps 746 mmHg 84%
    01:00 -4°C° 0 mm 3 mps 746 mmHg 85%
    02:00 -3°C° 0 mm 2 mps 746 mmHg 87%
    03:00 -4°C° 0 mm 2 mps 746 mmHg 89%
    04:00 -4°C° 0 mm 2 mps 746 mmHg 90%
    05:00 -4°C° 0 mm 2 mps 746 mmHg 92%
    06:00 -3°C° 0 mm 2 mps 745 mmHg 92%
    07:00 -3°C° 0 mm 2 mps 745 mmHg 92%
    08:00 -2°C° 0 mm 2 mps 744 mmHg 91%
    09:00 -2°C° 0 mm 2 mps 743 mmHg 91%
    10:00 -1°C° 0 mm 2 mps 743 mmHg 90%
    11:00 0°C° 0 mm 3 mps 742 mmHg 90%
    12:00 0°C° 0 mm 3 mps 741 mmHg 89%
    13:00 0°C° 0 mm 4 mps 740 mmHg 87%
    14:00 0°C° 0 mm 4 mps 739 mmHg 86%
    15:00 0°C° 0 mm 4 mps 738 mmHg 87%
    16:00 0°C° 0 mm 4 mps 737 mmHg 88%
    17:00 +1°C° 0 mm 3 mps 737 mmHg 89%
    18:00 0°C° 0 mm 3 mps 736 mmHg 90%
    19:00 -1°C° 0 mm 4 mps 736 mmHg 92%
    20:00 -1°C° 0 mm 4 mps 735 mmHg 93%
    21:00 -1°C° 0 mm 4 mps 734 mmHg 92%
    22:00 -1°C° 0 mm 4 mps 733 mmHg 91%
    23:00 -1°C° 0 mm 4 mps 732 mmHg 90%

    28 February, Thursday

    Time Temperature Precipitation Wind Pressure Humidity
    00:00 -1°C° 0 mm 4 mps 732 mmHg 87%
    01:00 -1°C° 0 mm 5 mps 731 mmHg 85%
    02:00 -1°C° 0 mm 5 mps 730 mmHg 83%
    03:00 -1°C° 0.1 mm 5 mps 729 mmHg 82%
    04:00 -1°C° 0.1 mm 5 mps 729 mmHg 82%
    05:00 -1°C° 0.1 mm 5 mps 728 mmHg 81%
    06:00 -1°C° 0.1 mm 5 mps 727 mmHg 82%
    07:00 -1°C° 0.1 mm 5 mps 727 mmHg 82%
    08:00 -2°C° 0.1 mm 6 mps 726 mmHg 82%
    09:00 -1°C° 0.1 mm 6 mps 726 mmHg 81%
    10:00 -1°C° 0.1 mm 6 mps 726 mmHg 81%
    11:00 +1°C° 0.1 mm 6 mps 726 mmHg 81%
    12:00 +1°C° 0.2 mm 6 mps 726 mmHg 81%
    13:00 +1°C° 0.2 mm 6 mps 727 mmHg 81%
    14:00 +1°C° 0.2 mm 6 mps 727 mmHg 81%
    15:00 -1°C° 0.2 mm 6 mps 728 mmHg 81%
    16:00 0°C° 0.2 mm 5 mps 728 mmHg 82%
    17:00 0°C° 0.2 mm 5 mps 729 mmHg 82%
    18:00 -1°C° 0.1 mm 5 mps 729 mmHg 82%
    19:00 -1°C° 0.1 mm 5 mps 730 mmHg 82%
    20:00 -1°C° 0.1 mm 5 mps 731 mmHg 82%
    21:00 -2°C° 0 mm 5 mps 731 mmHg 80%
    22:00 -2°C° 0 mm 5 mps 731 mmHg 78%
    23:00 -4°C° 0 mm 5 mps 732 mmHg 76%
    Show more